GEESAT-4 02 (65120 NORAD) Tracking and Keplerian Element Data

This shows tracking and keplerian element data for the satellite.

Feedback or suggestion? Click here.




ElementValue
Catalog65120
NameGEESAT-4 02
Epoch Orbit1988
Epoch Day354.20679254
Epoch Year2025
RAAN284.0372
Inclination49.9868
Eccentricity0.0010457
Argument of Perigee120.6112
Mean Anonmoly239.5859
Mean Motion14.83470178
Decay Rate1.566E-05
L11 65120U 25170B 25354.20679254 .00001566 00000+0 21577-3 0 9995
L22 65120 49.9868 284.0372 0010457 120.6112 239.5859 14.83470178 19886



Live tracking and technical data element details for GEESAT-4 02 (NORAD 65120). GEESAT-4 02 can be tracked NOW for your location showing map with azimuth and elevation plus other details from your city location.







IsCatalogInMostPopularTable: catalog: 65120, numindb: 11
Update: records affected: 1



GetName: 65120 GEESAT-4 02

Hit Count: updated at: Mon, 20 Apr 2026 09:56:46 GMT